Location: Unspecified
(54.1780°N, 0.0000°E)
Time: 04:35:01
(UTC+00:00)

Explorer 7 - Pass Details

Date: 25 June 2019
Orbit: 485 x 680 km, 50.3° (Epoch: 21 August)

Event Time Altitude Azimuth Distance (km) Brightness Sun altitude
Rises 12:15:00 0° 276° (W) 2,883 10.5 59.1°
Reaches altitude 10° 12:17:23 10° 268° (W) 2,007 9.9 59.1°
Maximum altitude 12:21:38 37° 201° (SSW) 1,018 9.7 59.0°
Drops below altitude 10° 12:26:03 10° 135° (SE) 2,088 10.2 58.9°
Sets 12:28:34 0° 127° (SE) 3,015 10.8 58.8°
